TimeEDT,TemperatureF,Dew PointF,Humidity,Sea Level PressureIn,VisibilityMPH,Wind Direction,Wind SpeedMPH,Gust SpeedMPH,PrecipitationIn,Events,Conditions,WindDirDegrees,DateUTC
12:15 AM,39.2,37.4,93,30.25,5.0,SE,3.5,-,N/A,,Mist,140,2012-10-11 04:15:00
12:35 AM,39.2,39.2,100,30.26,9.0,Calm,Calm,-,N/A,,Unknown,0,2012-10-11 04:35:00
12:55 AM,37.4,37.4,100,30.26,8.0,Calm,Calm,-,N/A,,Unknown,0,2012-10-11 04:55:00
1:15 AM,37.4,37.4,100,30.26,6.0,Calm,Calm,-,N/A,,Mist,0,2012-10-11 05:15:00
1:35 AM,35.6,35.6,100,30.26,5.0,Calm,Calm,-,N/A,,Mist,0,2012-10-11 05:35:00
1:55 AM,35.6,35.6,100,30.27,6.0,Calm,Calm,-,N/A,,Mist,0,2012-10-11 05:55:00
2:15 AM,35.6,35.6,100,30.27,7.0,Calm,Calm,-,N/A,,Unknown,0,2012-10-11 06:15:00
2:35 AM,35.6,35.6,100,30.28,3.0,East,3.5,-,N/A,,Mist,90,2012-10-11 06:35:00
2:55 AM,35.6,35.6,100,30.29,2.5,Calm,Calm,-,N/A,,Mist,0,2012-10-11 06:55:00
3:15 AM,35.6,35.6,100,30.28,5.0,Calm,Calm,-,N/A,,Mist,0,2012-10-11 07:15:00
3:35 AM,35.6,35.6,100,30.28,6.0,Calm,Calm,-,N/A,,Mist,0,2012-10-11 07:35:00
3:55 AM,33.8,33.8,100,30.28,0.5,Calm,Calm,-,N/A,Fog,Fog,0,2012-10-11 07:55:00
4:15 AM,33.8,33.8,100,30.29,0.2,Calm,Calm,-,N/A,Fog,Fog,0,2012-10-11 08:15:00
4:55 AM,32.0,32.0,100,30.29,5.0,Calm,Calm,-,N/A,,Mist,0,2012-10-11 08:55:00
5:15 AM,32.0,32.0,100,30.30,8.0,Calm,Calm,-,N/A,,Unknown,0,2012-10-11 09:15:00
5:35 AM,32.0,32.0,100,30.30,8.0,Calm,Calm,-,N/A,,Unknown,0,2012-10-11 09:35:00
5:55 AM,32.0,32.0,100,30.30,4.0,Calm,Calm,-,N/A,,Mist,0,2012-10-11 09:55:00
6:15 AM,32.0,32.0,100,30.30,9.0,Calm,Calm,-,N/A,,Unknown,0,2012-10-11 10:15:00
6:35 AM,32.0,32.0,100,30.30,5.0,Calm,Calm,-,N/A,,Mist,0,2012-10-11 10:35:00
6:55 AM,32.0,32.0,100,30.31,0.5,Calm,Calm,-,N/A,Fog,Fog,0,2012-10-11 10:55:00
7:15 AM,32.0,32.0,100,30.30,0.5,Calm,Calm,-,N/A,Fog,Light Freezing Fog,0,2012-10-11 11:15:00
7:35 AM,32.0,32.0,100,30.31,7.0,Calm,Calm,-,N/A,,Unknown,0,2012-10-11 11:35:00
7:55 AM,32.0,32.0,100,30.31,9.0,Calm,Calm,-,N/A,,Unknown,0,2012-10-11 11:55:00
8:15 AM,32.0,32.0,100,30.31,7.0,Calm,Calm,-,N/A,,Unknown,0,2012-10-11 12:15:00
8:55 AM,33.8,33.8,100,30.32,5.0,Calm,Calm,-,N/A,,Partly Cloudy,0,2012-10-11 12:55:00
9:15 AM,37.4,37.4,100,30.33,10.0,Calm,Calm,-,N/A,,Clear,0,2012-10-11 13:15:00
9:35 AM,39.2,39.2,100,30.33,10.0,Calm,Calm,-,N/A,,Clear,0,2012-10-11 13:35:00
9:55 AM,41.0,37.4,87,30.33,10.0,Calm,Calm,-,N/A,,Clear,0,2012-10-11 13:55:00
10:15 AM,44.6,39.2,81,30.33,10.0,Calm,Calm,-,N/A,,Clear,0,2012-10-11 14:15:00
10:35 AM,46.4,39.2,76,30.34,10.0,Calm,Calm,-,N/A,,Clear,0,2012-10-11 14:35:00
10:55 AM,50.0,37.4,62,30.33,10.0,Calm,Calm,-,N/A,,Clear,0,2012-10-11 14:55:00
11:15 AM,50.0,37.4,62,30.34,10.0,SE,3.5,-,N/A,,Clear,130,2012-10-11 15:15:00
11:35 AM,51.8,37.4,58,30.33,10.0,Calm,Calm,-,N/A,,Clear,0,2012-10-11 15:35:00
12:15 PM,55.4,37.4,51,30.32,10.0,ENE,3.5,-,N/A,,Clear,60,2012-10-11 16:15:00
12:35 PM,55.4,35.6,47,30.31,10.0,Calm,Calm,-,N/A,,Clear,0,2012-10-11 16:35:00
12:55 PM,55.4,35.6,47,30.30,10.0,Calm,Calm,-,N/A,,Clear,0,2012-10-11 16:55:00
1:15 PM,57.2,35.6,44,30.29,10.0,Calm,Calm,-,N/A,,Clear,0,2012-10-11 17:15:00
1:55 PM,59.0,35.6,42,30.27,10.0,Calm,Calm,-,N/A,,Clear,0,2012-10-11 17:55:00
2:15 PM,60.8,37.4,42,30.26,10.0,West,4.6,-,N/A,,Clear,270,2012-10-11 18:15:00
2:35 PM,62.6,37.4,39,30.26,10.0,Calm,Calm,-,N/A,,Clear,0,2012-10-11 18:35:00
2:55 PM,62.6,37.4,39,30.25,10.0,West,3.5,-,N/A,,Clear,270,2012-10-11 18:55:00
3:15 PM,62.6,37.4,39,30.25,10.0,Calm,Calm,-,N/A,,Clear,0,2012-10-11 19:15:00
4:15 PM,64.4,35.6,34,30.24,10.0,WSW,6.9,-,N/A,,Clear,250,2012-10-11 20:15:00
4:55 PM,64.4,35.6,34,30.24,10.0,WSW,8.1,-,N/A,,Clear,240,2012-10-11 20:55:00
5:15 PM,64.4,35.6,34,30.23,10.0,WSW,8.1,-,N/A,,Clear,240,2012-10-11 21:15:00
5:35 PM,64.4,35.6,34,30.23,10.0,WSW,8.1,-,N/A,,Clear,240,2012-10-11 21:35:00
5:55 PM,64.4,37.4,37,30.24,10.0,WSW,6.9,-,N/A,,Clear,240,2012-10-11 21:55:00
6:15 PM,64.4,37.4,37,30.24,10.0,WSW,6.9,-,N/A,,Clear,250,2012-10-11 22:15:00
7:15 PM,57.2,42.8,59,30.25,10.0,Calm,Calm,-,N/A,,Unknown,0,2012-10-11 23:15:00
7:35 PM,53.6,42.8,67,30.25,8.0,Calm,Calm,-,N/A,,Unknown,0,2012-10-11 23:35:00
7:55 PM,51.8,44.6,76,30.25,7.0,Calm,Calm,-,N/A,,Unknown,0,2012-10-11 23:55:00
8:15 PM,50.0,44.6,82,30.25,10.0,Calm,Calm,-,N/A,,Unknown,0,2012-10-12 00:15:00
8:35 PM,50.0,44.6,82,30.25,10.0,Calm,Calm,-,N/A,,Unknown,0,2012-10-12 00:35:00
8:55 PM,48.2,44.6,87,30.25,10.0,Calm,Calm,-,N/A,,Unknown,0,2012-10-12 00:55:00
9:15 PM,46.4,44.6,93,30.26,10.0,Calm,Calm,-,N/A,,Unknown,0,2012-10-12 01:15:00
9:35 PM,44.6,42.8,93,30.26,10.0,Calm,Calm,-,N/A,,Unknown,0,2012-10-12 01:35:00
9:55 PM,44.6,42.8,93,30.26,10.0,NNE,3.5,-,N/A,,Unknown,30,2012-10-12 01:55:00
10:15 PM,44.6,42.8,93,30.27,10.0,Calm,Calm,-,N/A,,Unknown,0,2012-10-12 02:15:00
10:35 PM,44.6,42.8,93,30.27,10.0,Calm,Calm,-,N/A,,Unknown,0,2012-10-12 02:35:00
10:55 PM,44.6,42.8,93,30.27,10.0,Calm,Calm,-,N/A,,Unknown,0,2012-10-12 02:55:00
11:15 PM,41.0,41.0,100,30.27,10.0,Calm,Calm,-,N/A,,Unknown,0,2012-10-12 03:15:00
11:55 PM,42.8,41.0,93,30.27,10.0,Calm,Calm,-,N/A,,Unknown,0,2012-10-12 03:55:00